Regional Weather Roundup
Issued by NWS

Home | Current Version | Previous Version | Text Only | Print | Product List | Glossary On
Versions: 1 2 3 4 5 6 7 8 9 10 11 12 13 14 15 16 17 18 19 20 21 22 23 24 25 26 27 28 29 30 31 32 33 34 35 36 37 38 39 40 41 42 43 44 45 46 47 48 49 50
000
ASUS44 KMEG 041500
RWRTN
TENNESSEE HOURLY STATE WEATHER ROUNDUP
NATIONAL WEATHER SERVICE MEMPHIS TN
1000 AM CDT MON MAY 04 2015

TNZ002-004-019-021-049-052-054-088>092-041600-
WEST TENNESSEE

CITY           SKY/WX    TMP DP  RH WIND       PRES   REMARKS
MEMPHIS INTL   MOSUNNY   76  60  57 SW8       30.22R
NWS MEMPHIS      N/A     77 N/A N/A MISG        N/A
JACKSON        MOSUNNY   75  58  55 S7        30.23R
DYERSBURG      SUNNY     75  52  43 W6        30.22S
PARIS          SUNNY     73  55  53 SW8       30.23S
LEXINGTON      SUNNY     73  57  56 SW7       30.24R
$$

TNZ008-025-027-028-033-062-065-066-041600-
NORTH MIDDLE TENNESSEE

CITY           SKY/WX    TMP DP  RH WIND       PRES   REMARKS
NASHVILLE      PTSUNNY   76  53  44 SW7       30.27R
CLARKSVILLE    MOSUNNY   73  55  53 S9        30.23R
CROSSVILLE     SUNNY     73  48  41 W9        30.33R
$$

TNZ061-075-076-078-094-096-097-041600-
SOUTH MIDDLE TENNESSEE

CITY           SKY/WX    TMP DP  RH WIND       PRES   REMARKS
FAYETTEVILLE   MOSUNNY   70  54  56 SW3       30.30R
TULLAHOMA      PTSUNNY   73  52  46 SW8       30.31R
WINCHESTER     SUNNY     75  54  46 W5        30.30S
SHELBYVILLE    PTSUNNY   75  57  53 SW8       30.30R
$$

TNZ017-018-042-046-047-041600-
NORTHEAST TENNESSEE

CITY           SKY/WX    TMP DP  RH WIND       PRES   REMARKS
TRI CITIES     SUNNY     73  51  46 VRB5      30.32R
ELIZABETHTON   SUNNY     73  48  40 CALM      30.32R
$$

TNZ012-013-036-069-073-074-041600-
CENTRAL EAST TENNESSEE

CITY           SKY/WX    TMP DP  RH WIND       PRES   REMARKS
KNOXVILLE      MOSUNNY   70  52  52 CALM      30.30R
OAK RIDGE      SUNNY     72  51  47 W5        30.32R
GATLINBURG     SUNNY     72  52  49 NW6       30.30R
$$

TNZ083-085-099-041600-
SOUTHEAST TENNESSEE

CITY           SKY/WX    TMP DP  RH WIND       PRES   REMARKS
CHATTANOOGA    MOSUNNY   72  53  51 W8        30.32R
$$

SKY/WX REPORTED AS FAIR MEANS FEW OR NO CLOUDS BELOW
12 THOUSAND FEET.



USA.gov is the U.S. government's official web portal to all federal, state and local government web resources and services.